Time,TemperatureF,DewpointF,PressureIn,WindDirection,WindDirectionDegrees,WindSpeedMPH,WindSpeedGustMPH,Humidity,HourlyPrecipIn,Conditions,Clouds,dailyrainin,SoftwareType,DateUTC
2013-02-16 00:04:00,35.6,32.9,30.09,NW,315,0.0,0.0,90,0.00,,,0.00,WUHU216HW,2013-02-16 00:04:00,
2013-02-16 00:09:00,35.6,32.9,30.09,NW,315,0.0,0.0,90,0.00,,,0.00,WUHU216HW,2013-02-16 00:09:00,
2013-02-16 00:14:00,35.6,32.9,30.10,NW,315,0.0,0.0,90,0.00,,,0.00,WUHU216HW,2013-02-16 00:14:00,
2013-02-16 00:19:00,35.6,32.9,30.10,NW,315,0.0,0.0,90,0.00,,,0.00,WUHU216HW,2013-02-16 00:19:00,
2013-02-16 00:24:00,35.6,32.9,30.10,NW,315,0.0,0.0,90,0.00,,,0.00,WUHU216HW,2013-02-16 00:24:00,
2013-02-16 00:29:00,35.6,32.9,30.10,NW,315,0.0,0.0,90,0.00,,,0.00,WUHU216HW,2013-02-16 00:29:00,
2013-02-16 00:34:00,35.5,32.8,30.09,NW,315,0.0,0.0,90,0.00,,,0.00,WUHU216HW,2013-02-16 00:34:00,
2013-02-16 00:39:00,35.5,32.8,30.10,NW,315,0.0,0.0,90,0.00,,,0.00,WUHU216HW,2013-02-16 00:39:00,
2013-02-16 00:44:00,35.5,33.0,30.10,NW,315,0.0,0.0,91,0.00,,,0.00,WUHU216HW,2013-02-16 00:44:00,
2013-02-16 00:49:00,35.5,33.0,30.09,NW,315,0.0,0.0,91,0.00,,,0.00,WUHU216HW,2013-02-16 00:49:00,
2013-02-16 00:54:00,35.5,33.0,30.09,NW,315,0.0,0.0,91,0.00,,,0.00,WUHU216HW,2013-02-16 00:54:00,
2013-02-16 00:59:00,35.3,32.9,30.09,NW,315,0.0,0.0,91,0.00,,,0.00,WUHU216HW,2013-02-16 00:59:00,
2013-02-16 01:04:00,35.3,32.9,30.09,NW,315,0.0,0.0,91,0.00,,,0.00,WUHU216HW,2013-02-16 01:04:00,
2013-02-16 01:09:00,35.1,32.7,30.09,NW,315,0.0,0.0,91,0.00,,,0.00,WUHU216HW,2013-02-16 01:09:00,
2013-02-16 01:14:00,34.9,32.5,30.09,NW,315,0.0,0.0,91,0.00,,,0.00,WUHU216HW,2013-02-16 01:14:00,
2013-02-16 01:19:00,34.9,32.5,30.09,NW,315,0.0,0.0,91,0.00,,,0.00,WUHU216HW,2013-02-16 01:19:00,
2013-02-16 01:24:00,34.9,32.5,30.09,NW,315,0.0,0.0,91,0.00,,,0.00,WUHU216HW,2013-02-16 01:24:00,
2013-02-16 01:29:00,35.1,32.7,30.09,West,270,0.0,0.9,91,0.00,,,0.00,WUHU216HW,2013-02-16 01:29:00,
2013-02-16 01:34:00,35.3,32.9,30.09,West,270,0.0,0.9,91,0.00,,,0.00,WUHU216HW,2013-02-16 01:34:00,
2013-02-16 01:39:00,35.3,32.9,30.09,West,270,0.2,0.2,91,0.00,,,0.00,WUHU216HW,2013-02-16 01:39:00,
2013-02-16 01:44:00,35.3,32.9,30.09,West,270,0.0,0.2,91,0.00,,,0.00,WUHU216HW,2013-02-16 01:44:00,
2013-02-16 01:49:00,35.5,33.3,30.09,West,270,0.0,0.0,92,0.00,,,0.00,WUHU216HW,2013-02-16 01:49:00,
2013-02-16 01:54:00,35.5,33.3,30.09,West,270,0.0,0.0,92,0.00,,,0.00,WUHU216HW,2013-02-16 01:54:00,
2013-02-16 01:59:00,35.5,33.3,30.09,West,270,0.0,0.0,92,0.00,,,0.00,WUHU216HW,2013-02-16 01:59:00,
2013-02-16 02:04:00,35.6,33.5,30.09,West,270,0.0,0.0,92,0.00,,,0.00,WUHU216HW,2013-02-16 02:04:00,
2013-02-16 02:09:00,35.6,33.5,30.09,West,270,0.0,0.0,92,0.00,,,0.00,WUHU216HW,2013-02-16 02:09:00,
2013-02-16 02:14:00,35.8,33.7,30.09,West,270,0.0,0.0,92,0.00,,,0.00,WUHU216HW,2013-02-16 02:14:00,
2013-02-16 02:19:00,36.0,33.8,30.09,West,270,0.0,0.0,92,0.00,,,0.00,WUHU216HW,2013-02-16 02:19:00,
2013-02-16 02:24:00,36.0,33.8,30.09,West,270,0.0,0.0,92,0.00,,,0.00,WUHU216HW,2013-02-16 02:24:00,
2013-02-16 02:30:00,36.0,33.8,30.09,West,270,0.4,0.4,92,0.00,,,0.00,WUHU216HW,2013-02-16 02:30:00,
2013-02-16 02:35:00,36.0,33.8,30.09,West,270,0.0,0.4,92,0.00,,,0.00,WUHU216HW,2013-02-16 02:35:00,
2013-02-16 02:40:00,36.2,34.0,30.09,West,270,0.0,0.4,92,0.00,,,0.00,WUHU216HW,2013-02-16 02:40:00,
2013-02-16 02:45:00,36.2,34.0,30.09,West,270,0.0,0.0,92,0.00,,,0.00,WUHU216HW,2013-02-16 02:45:00,
2013-02-16 02:50:00,36.4,34.2,30.08,West,270,0.0,0.0,92,0.00,,,0.00,WUHU216HW,2013-02-16 02:50:00,
2013-02-16 02:55:00,36.4,34.2,30.09,West,270,0.0,0.0,92,0.00,,,0.00,WUHU216HW,2013-02-16 02:55:00,
2013-02-16 03:00:00,36.4,34.2,30.08,West,270,0.2,0.2,92,0.00,,,0.00,WUHU216HW,2013-02-16 03:00:00,
2013-02-16 03:05:00,36.4,34.2,30.08,WSW,248,0.0,0.2,92,0.00,,,0.00,WUHU216HW,2013-02-16 03:05:00,
2013-02-16 03:10:00,36.4,34.2,30.08,WSW,248,0.0,0.2,92,0.00,,,0.00,WUHU216HW,2013-02-16 03:10:00,
2013-02-16 03:15:00,36.4,34.2,30.08,WSW,248,0.0,0.0,92,0.00,,,0.00,WUHU216HW,2013-02-16 03:15:00,
2013-02-16 03:20:00,36.4,34.2,30.08,SSW,203,0.0,0.0,92,0.00,,,0.00,WUHU216HW,2013-02-16 03:20:00,
2013-02-16 03:25:00,36.4,34.2,30.08,SSW,203,0.0,0.0,92,0.00,,,0.00,WUHU216HW,2013-02-16 03:25:00,
2013-02-16 03:30:00,36.4,34.2,30.08,SSW,203,0.0,0.0,92,0.00,,,0.00,WUHU216HW,2013-02-16 03:30:00,
2013-02-16 03:35:00,36.4,34.2,30.08,SSW,203,0.0,0.0,92,0.00,,,0.00,WUHU216HW,2013-02-16 03:35:00,
2013-02-16 03:40:00,36.4,34.2,30.08,SSW,203,0.0,0.0,92,0.00,,,0.00,WUHU216HW,2013-02-16 03:40:00,
2013-02-16 03:45:00,36.4,34.2,30.08,SSW,203,0.0,0.0,92,0.00,,,0.00,WUHU216HW,2013-02-16 03:45:00,
2013-02-16 03:50:00,36.4,34.2,30.08,SSW,203,0.0,0.0,92,0.00,,,0.00,WUHU216HW,2013-02-16 03:50:00,
2013-02-16 03:55:00,36.4,34.2,30.08,SSW,203,0.0,0.0,92,0.00,,,0.00,WUHU216HW,2013-02-16 03:55:00,
2013-02-16 04:00:00,36.4,34.2,30.08,SSW,203,0.0,0.0,92,0.00,,,0.00,WUHU216HW,2013-02-16 04:00:00,
2013-02-16 04:05:00,36.4,34.2,30.07,SSW,203,0.0,0.0,92,0.00,,,0.00,WUHU216HW,2013-02-16 04:05:00,
2013-02-16 04:10:00,36.5,34.4,30.07,SSW,203,0.0,0.0,92,0.00,,,0.00,WUHU216HW,2013-02-16 04:10:00,
2013-02-16 04:15:00,36.5,34.4,30.07,SSW,203,0.0,0.0,92,0.00,,,0.00,WUHU216HW,2013-02-16 04:15:00,
2013-02-16 04:20:00,36.7,34.6,30.08,SSW,203,0.0,0.0,92,0.00,,,0.00,WUHU216HW,2013-02-16 04:20:00,
2013-02-16 04:25:00,36.9,34.7,30.07,SSW,203,0.0,0.0,92,0.00,,,0.00,WUHU216HW,2013-02-16 04:25:00,
2013-02-16 04:30:00,37.1,34.9,30.08,SSW,203,0.0,0.0,92,0.00,,,0.00,WUHU216HW,2013-02-16 04:30:00,
2013-02-16 04:35:00,37.1,34.9,30.08,SSW,203,0.0,0.0,92,0.00,,,0.00,WUHU216HW,2013-02-16 04:35:00,
2013-02-16 04:40:00,37.1,34.9,30.08,SSW,203,0.0,0.0,92,0.00,,,0.00,WUHU216HW,2013-02-16 04:40:00,
2013-02-16 04:45:00,37.1,34.9,30.08,SSW,203,0.0,0.0,92,0.00,,,0.00,WUHU216HW,2013-02-16 04:45:00,
2013-02-16 04:50:00,37.1,34.9,30.07,SSW,203,0.0,0.0,92,0.00,,,0.00,WUHU216HW,2013-02-16 04:50:00,
2013-02-16 04:55:00,37.1,34.9,30.08,SSW,203,0.0,0.0,92,0.00,,,0.00,WUHU216HW,2013-02-16 04:55:00,
2013-02-16 05:00:00,37.1,34.9,30.08,SSW,203,0.0,0.0,92,0.00,,,0.00,WUHU216HW,2013-02-16 05:00:00,
2013-02-16 05:05:00,37.1,34.9,30.08,SSW,203,0.0,0.0,92,0.00,,,0.00,WUHU216HW,2013-02-16 05:05:00,
2013-02-16 05:10:00,37.3,35.1,30.08,SSW,203,0.0,0.0,92,0.00,,,0.00,WUHU216HW,2013-02-16 05:10:00,
2013-02-16 05:15:00,37.4,35.3,30.08,SSW,203,0.0,0.0,92,0.00,,,0.00,WUHU216HW,2013-02-16 05:15:00,
2013-02-16 05:20:00,37.4,35.3,30.07,SSW,203,0.0,0.0,92,0.00,,,0.00,WUHU216HW,2013-02-16 05:20:00,
2013-02-16 05:25:00,37.4,35.3,30.08,SSW,203,0.0,0.0,92,0.00,,,0.00,WUHU216HW,2013-02-16 05:25:00,
2013-02-16 05:30:00,37.4,35.3,30.08,SSW,203,0.0,0.0,92,0.00,,,0.00,WUHU216HW,2013-02-16 05:30:00,
2013-02-16 05:35:00,37.4,35.3,30.07,SSW,203,0.0,0.0,92,0.00,,,0.00,WUHU216HW,2013-02-16 05:35:00,
2013-02-16 05:40:00,37.6,35.5,30.07,SSW,203,0.0,0.0,92,0.00,,,0.00,WUHU216HW,2013-02-16 05:40:00,
2013-02-16 05:45:00,37.6,35.5,30.07,SSW,203,0.0,0.0,92,0.00,,,0.00,WUHU216HW,2013-02-16 05:45:00,
2013-02-16 05:50:00,37.6,35.5,30.07,SSW,203,0.0,0.0,92,0.00,,,0.00,WUHU216HW,2013-02-16 05:50:00,
2013-02-16 05:55:00,37.6,35.5,30.07,SSW,203,0.0,0.0,92,0.00,,,0.00,WUHU216HW,2013-02-16 05:55:00,
2013-02-16 06:00:00,37.6,35.5,30.07,SSW,203,0.0,0.0,92,0.00,,,0.00,WUHU216HW,2013-02-16 06:00:00,
2013-02-16 06:05:00,37.4,35.3,30.07,SSW,203,0.0,0.0,92,0.00,,,0.00,WUHU216HW,2013-02-16 06:05:00,
2013-02-16 06:10:00,37.4,35.3,30.07,SSW,203,0.0,0.0,92,0.00,,,0.00,WUHU216HW,2013-02-16 06:10:00,
2013-02-16 06:15:00,37.3,35.1,30.07,SSW,203,0.0,0.0,92,0.00,,,0.00,WUHU216HW,2013-02-16 06:15:00,
2013-02-16 06:20:00,37.3,35.1,30.07,SSW,203,0.0,0.0,92,0.00,,,0.00,WUHU216HW,2013-02-16 06:20:00,
2013-02-16 06:25:00,37.3,35.1,30.07,SSW,203,0.0,0.0,92,0.00,,,0.00,WUHU216HW,2013-02-16 06:25:00,
2013-02-16 06:30:00,37.3,35.1,30.07,SSW,203,0.0,0.0,92,0.00,,,0.00,WUHU216HW,2013-02-16 06:30:00,
2013-02-16 06:35:00,37.4,35.3,30.07,SSW,203,0.0,0.0,92,0.00,,,0.00,WUHU216HW,2013-02-16 06:35:00,
2013-02-16 06:40:00,37.4,35.3,30.07,SSW,203,0.0,0.0,92,0.00,,,0.00,WUHU216HW,2013-02-16 06:40:00,
2013-02-16 06:45:00,37.4,35.3,30.06,SSW,203,0.0,0.0,92,0.00,,,0.00,WUHU216HW,2013-02-16 06:45:00,
2013-02-16 06:50:00,37.4,35.3,30.07,SSW,203,0.0,0.0,92,0.00,,,0.00,WUHU216HW,2013-02-16 06:50:00,
2013-02-16 06:55:00,37.4,35.3,30.06,SSW,203,0.0,0.0,92,0.00,,,0.00,WUHU216HW,2013-02-16 06:55:00,
2013-02-16 07:00:00,37.4,35.3,30.06,SSW,203,0.0,0.0,92,0.00,,,0.00,WUHU216HW,2013-02-16 07:00:00,
2013-02-16 07:05:00,37.4,35.3,30.06,SSW,203,0.0,0.0,92,0.00,,,0.00,WUHU216HW,2013-02-16 07:05:00,
2013-02-16 07:10:00,37.4,35.3,30.07,SSW,203,0.0,0.0,92,0.00,,,0.00,WUHU216HW,2013-02-16 07:10:00,
2013-02-16 07:15:00,37.4,35.3,30.07,SSW,203,0.0,0.0,92,0.00,,,0.00,WUHU216HW,2013-02-16 07:15:00,
2013-02-16 07:20:00,37.4,35.3,30.07,SSW,203,0.0,0.0,92,0.00,,,0.00,WUHU216HW,2013-02-16 07:20:00,
2013-02-16 07:25:00,37.6,35.5,30.07,SSW,203,0.0,0.0,92,0.00,,,0.00,WUHU216HW,2013-02-16 07:25:00,
2013-02-16 07:30:00,37.8,35.6,30.07,SSW,203,0.0,0.0,92,0.00,,,0.00,WUHU216HW,2013-02-16 07:30:00,
2013-02-16 07:35:00,37.8,35.6,30.07,SSW,203,0.0,0.0,92,0.00,,,0.00,WUHU216HW,2013-02-16 07:35:00,
2013-02-16 07:40:00,37.8,35.6,30.07,SSW,203,0.0,0.0,92,0.00,,,0.00,WUHU216HW,2013-02-16 07:40:00,
2013-02-16 07:45:00,37.8,35.6,30.07,SSW,203,0.0,0.0,92,0.00,,,0.00,WUHU216HW,2013-02-16 07:45:00,
2013-02-16 07:50:00,37.8,35.6,30.07,SSW,203,0.0,0.0,92,0.00,,,0.00,WUHU216HW,2013-02-16 07:50:00,
2013-02-16 07:55:00,37.8,35.6,30.07,SSW,203,0.0,0.0,92,0.00,,,0.00,WUHU216HW,2013-02-16 07:55:00,
2013-02-16 08:00:00,37.8,35.6,30.07,SSW,203,0.0,0.0,92,0.00,,,0.00,WUHU216HW,2013-02-16 08:00:00,
2013-02-16 08:05:00,37.8,35.6,30.07,SSW,203,0.0,0.0,92,0.00,,,0.00,WUHU216HW,2013-02-16 08:05:00,
2013-02-16 08:10:00,37.8,35.6,30.07,SSW,203,0.0,0.0,92,0.00,,,0.00,WUHU216HW,2013-02-16 08:10:00,
2013-02-16 08:15:00,38.0,35.8,30.07,SSW,203,0.0,0.0,92,0.00,,,0.00,WUHU216HW,2013-02-16 08:15:00,
2013-02-16 08:20:00,38.0,35.8,30.07,SSW,203,0.0,0.0,92,0.00,,,0.00,WUHU216HW,2013-02-16 08:20:00,
2013-02-16 08:25:00,38.2,36.0,30.07,SSW,203,0.0,0.0,92,0.00,,,0.00,WUHU216HW,2013-02-16 08:25:00,
2013-02-16 08:30:00,38.3,36.2,30.07,SSW,203,0.0,0.0,92,0.00,,,0.00,WUHU216HW,2013-02-16 08:30:00,
2013-02-16 08:35:00,38.3,36.2,30.07,SSW,203,0.0,0.0,92,0.00,,,0.00,WUHU216HW,2013-02-16 08:35:00,
2013-02-16 08:40:00,38.3,36.2,30.07,SSW,203,0.0,0.0,92,0.00,,,0.00,WUHU216HW,2013-02-16 08:40:00,
2013-02-16 08:45:00,38.5,36.4,30.07,SSW,203,0.0,0.0,92,0.00,,,0.00,WUHU216HW,2013-02-16 08:45:00,
2013-02-16 08:50:00,38.7,36.5,30.07,SSW,203,0.0,0.0,92,0.00,,,0.00,WUHU216HW,2013-02-16 08:50:00,
2013-02-16 08:55:00,38.7,36.5,30.07,SSW,203,0.0,0.0,92,0.00,,,0.00,WUHU216HW,2013-02-16 08:55:00,
2013-02-16 09:00:00,38.9,36.7,30.07,SSW,203,0.0,0.0,92,0.00,,,0.00,WUHU216HW,2013-02-16 09:00:00,
2013-02-16 09:05:00,38.9,37.0,30.07,SSW,203,0.0,0.0,93,0.00,,,0.00,WUHU216HW,2013-02-16 09:05:00,
2013-02-16 09:10:00,39.2,37.4,30.07,SSW,203,0.0,0.0,93,0.00,,,0.00,WUHU216HW,2013-02-16 09:10:00,
2013-02-16 09:15:00,39.2,37.4,30.08,SSW,203,0.0,0.0,93,0.00,,,0.00,WUHU216HW,2013-02-16 09:15:00,
2013-02-16 09:20:00,39.4,37.8,30.08,SSW,203,0.0,0.0,94,0.00,,,0.00,WUHU216HW,2013-02-16 09:20:00,
2013-02-16 09:25:00,39.6,38.0,30.08,SSW,203,0.0,0.0,94,0.01,,,0.01,WUHU216HW,2013-02-16 09:25:00,
2013-02-16 09:30:00,40.1,38.5,30.08,SSW,203,0.0,0.0,94,0.01,,,0.01,WUHU216HW,2013-02-16 09:30:00,
2013-02-16 09:35:00,40.3,38.7,30.08,SSW,203,0.0,0.0,94,0.01,,,0.01,WUHU216HW,2013-02-16 09:35:00,
2013-02-16 09:40:00,40.5,38.9,30.08,SSW,203,0.0,0.0,94,0.01,,,0.01,WUHU216HW,2013-02-16 09:40:00,
2013-02-16 09:45:00,40.5,38.9,30.08,North,0,0.0,0.0,94,0.01,,,0.01,WUHU216HW,2013-02-16 09:45:00,
2013-02-16 09:50:00,40.7,39.1,30.08,North,0,0.0,0.0,94,0.01,,,0.01,WUHU216HW,2013-02-16 09:50:00,
2013-02-16 09:55:00,40.9,39.2,30.08,North,0,0.0,0.0,94,0.01,,,0.01,WUHU216HW,2013-02-16 09:55:00,
2013-02-16 10:00:00,41.0,39.4,30.08,North,0,0.0,0.0,94,0.01,,,0.01,WUHU216HW,2013-02-16 10:00:00,
2013-02-16 10:05:00,41.0,39.4,30.08,North,0,0.0,0.0,94,0.01,,,0.01,WUHU216HW,2013-02-16 10:05:00,
2013-02-16 10:10:00,41.2,39.6,30.08,North,0,0.0,0.0,94,0.01,,,0.01,WUHU216HW,2013-02-16 10:10:00,
2013-02-16 10:15:00,41.4,39.8,30.08,North,0,0.0,0.0,94,0.01,,,0.01,WUHU216HW,2013-02-16 10:15:00,
2013-02-16 10:20:00,41.4,39.8,30.08,North,0,0.0,0.0,94,0.00,,,0.01,WUHU216HW,2013-02-16 10:20:00,
2013-02-16 10:25:00,41.4,39.8,30.08,North,0,0.0,0.0,94,0.00,,,0.01,WUHU216HW,2013-02-16 10:25:00,
2013-02-16 10:30:00,41.4,39.8,30.08,North,0,0.0,0.0,94,0.00,,,0.01,WUHU216HW,2013-02-16 10:30:00,
2013-02-16 10:35:00,41.6,40.0,30.08,North,0,0.0,0.0,94,0.00,,,0.01,WUHU216HW,2013-02-16 10:35:00,
2013-02-16 10:40:00,41.8,40.1,30.08,North,0,0.0,0.0,94,0.00,,,0.01,WUHU216HW,2013-02-16 10:40:00,
2013-02-16 10:45:00,41.8,40.1,30.08,North,0,0.0,0.0,94,0.00,,,0.01,WUHU216HW,2013-02-16 10:45:00,
2013-02-16 10:50:00,41.9,40.3,30.08,North,0,0.0,0.0,94,0.00,,,0.01,WUHU216HW,2013-02-16 10:50:00,
2013-02-16 10:55:00,42.1,40.5,30.08,North,0,0.0,0.0,94,0.00,,,0.01,WUHU216HW,2013-02-16 10:55:00,
2013-02-16 11:00:00,42.3,40.7,30.08,SSW,203,0.0,0.0,94,0.00,,,0.01,WUHU216HW,2013-02-16 11:00:00,
2013-02-16 11:05:00,42.5,40.9,30.08,SSW,203,0.0,0.0,94,0.00,,,0.01,WUHU216HW,2013-02-16 11:05:00,
2013-02-16 11:10:00,42.5,40.9,30.08,SSW,203,0.0,0.0,94,0.00,,,0.01,WUHU216HW,2013-02-16 11:10:00,
2013-02-16 11:15:00,42.5,40.9,30.09,South,180,0.2,0.4,94,0.00,,,0.01,WUHU216HW,2013-02-16 11:15:00,
2013-02-16 11:20:00,42.7,41.0,30.09,South,180,0.2,0.4,94,0.00,,,0.01,WUHU216HW,2013-02-16 11:20:00,
2013-02-16 11:25:00,42.8,41.2,30.09,South,180,0.0,0.2,94,0.00,,,0.01,WUHU216HW,2013-02-16 11:25:00,
2013-02-16 11:30:00,43.0,41.4,30.09,South,180,0.0,0.2,94,0.00,,,0.01,WUHU216HW,2013-02-16 11:30:00,
2013-02-16 11:35:00,43.2,41.6,30.09,South,180,0.0,0.0,94,0.00,,,0.01,WUHU216HW,2013-02-16 11:35:00,
2013-02-16 11:41:00,43.2,41.6,30.09,South,180,0.0,0.0,94,0.00,,,0.01,WUHU216HW,2013-02-16 11:41:00,
2013-02-16 11:46:00,43.2,41.6,30.09,South,180,0.0,0.0,94,0.00,,,0.01,WUHU216HW,2013-02-16 11:46:00,
2013-02-16 11:51:00,43.4,41.8,30.09,SSE,158,0.0,0.0,94,0.00,,,0.01,WUHU216HW,2013-02-16 11:51:00,
2013-02-16 11:56:00,43.6,41.9,30.09,SSE,158,0.0,0.0,94,0.00,,,0.01,WUHU216HW,2013-02-16 11:56:00,
2013-02-16 12:01:00,43.6,41.9,30.09,SSE,158,0.4,0.4,94,0.00,,,0.01,WUHU216HW,2013-02-16 12:01:00,
2013-02-16 12:06:00,43.6,41.7,30.09,North,0,0.0,0.4,93,0.00,,,0.01,WUHU216HW,2013-02-16 12:06:00,
2013-02-16 12:11:00,43.6,41.9,30.09,North,0,0.0,0.4,94,0.00,,,0.01,WUHU216HW,2013-02-16 12:11:00,
2013-02-16 12:16:00,43.7,42.1,30.09,North,0,0.0,0.0,94,0.00,,,0.01,WUHU216HW,2013-02-16 12:16:00,
2013-02-16 12:21:00,43.9,42.3,30.09,North,0,0.0,0.0,94,0.00,,,0.01,WUHU216HW,2013-02-16 12:21:00,
2013-02-16 12:26:00,43.9,42.3,30.09,North,0,0.0,0.0,94,0.00,,,0.01,WUHU216HW,2013-02-16 12:26:00,
2013-02-16 12:31:00,44.1,42.2,30.08,North,0,0.0,0.0,93,0.00,,,0.01,WUHU216HW,2013-02-16 12:31:00,
2013-02-16 12:36:00,44.3,42.4,30.08,North,0,0.0,0.0,93,0.00,,,0.01,WUHU216HW,2013-02-16 12:36:00,
2013-02-16 12:41:00,44.3,42.4,30.08,North,0,0.0,0.0,93,0.00,,,0.01,WUHU216HW,2013-02-16 12:41:00,
2013-02-16 12:46:00,44.3,42.4,30.08,North,0,0.0,0.0,93,0.00,,,0.01,WUHU216HW,2013-02-16 12:46:00,
2013-02-16 12:51:00,44.6,42.8,30.08,North,0,0.0,0.0,93,0.00,,,0.01,WUHU216HW,2013-02-16 12:51:00,
2013-02-16 12:56:00,44.6,42.8,30.08,North,0,0.0,0.0,93,0.00,,,0.01,WUHU216HW,2013-02-16 12:56:00,
2013-02-16 13:01:00,44.6,42.8,30.08,North,0,0.0,0.0,93,0.00,,,0.01,WUHU216HW,2013-02-16 13:01:00,
2013-02-16 13:06:00,44.6,42.8,30.07,North,0,0.0,0.0,93,0.00,,,0.01,WUHU216HW,2013-02-16 13:06:00,
2013-02-16 13:11:00,44.8,42.9,30.07,North,0,0.0,0.0,93,0.00,,,0.01,WUHU216HW,2013-02-16 13:11:00,
2013-02-16 13:16:00,45.0,43.1,30.07,North,0,0.0,0.0,93,0.00,,,0.01,WUHU216HW,2013-02-16 13:16:00,
2013-02-16 13:21:00,45.0,43.1,30.07,North,0,0.0,0.0,93,0.00,,,0.01,WUHU216HW,2013-02-16 13:21:00,
2013-02-16 13:26:00,45.0,43.1,30.08,SSE,158,0.0,0.0,93,0.00,,,0.01,WUHU216HW,2013-02-16 13:26:00,
2013-02-16 13:31:00,45.2,43.3,30.07,SSE,158,0.0,0.0,93,0.00,,,0.01,WUHU216HW,2013-02-16 13:31:00,
2013-02-16 13:36:00,45.2,43.3,30.07,SSE,158,0.0,0.0,93,0.00,,,0.01,WUHU216HW,2013-02-16 13:36:00,
2013-02-16 13:41:00,45.2,43.3,30.07,SSE,158,0.0,0.0,93,0.00,,,0.01,WUHU216HW,2013-02-16 13:41:00,
2013-02-16 13:46:00,45.4,43.5,30.07,SSE,158,0.0,0.0,93,0.00,,,0.01,WUHU216HW,2013-02-16 13:46:00,
2013-02-16 13:51:00,45.4,43.5,30.07,SSE,158,0.0,0.0,93,0.00,,,0.01,WUHU216HW,2013-02-16 13:51:00,
2013-02-16 13:56:00,45.2,43.3,30.07,SSE,158,0.2,0.2,93,0.00,,,0.01,WUHU216HW,2013-02-16 13:56:00,
2013-02-16 14:01:00,45.2,43.3,30.07,SSE,158,0.0,0.2,93,0.00,,,0.01,WUHU216HW,2013-02-16 14:01:00,
2013-02-16 14:06:00,45.4,43.2,30.08,SSE,158,0.0,0.2,92,0.00,,,0.01,WUHU216HW,2013-02-16 14:06:00,
2013-02-16 14:11:00,45.4,43.2,30.08,SSE,158,0.0,0.0,92,0.00,,,0.01,WUHU216HW,2013-02-16 14:11:00,
2013-02-16 14:16:00,45.4,43.2,30.07,SSE,158,0.0,0.0,92,0.00,,,0.01,WUHU216HW,2013-02-16 14:16:00,
2013-02-16 14:21:00,45.5,43.4,30.07,SSE,158,0.0,0.0,92,0.00,,,0.01,WUHU216HW,2013-02-16 14:21:00,
2013-02-16 14:26:00,45.7,43.6,30.07,North,0,0.0,0.0,92,0.00,,,0.01,WUHU216HW,2013-02-16 14:26:00,
2013-02-16 14:31:00,45.7,43.6,30.07,North,0,0.0,0.0,92,0.00,,,0.01,WUHU216HW,2013-02-16 14:31:00,
2013-02-16 14:36:00,45.7,43.6,30.07,North,0,0.0,0.0,92,0.00,,,0.01,WUHU216HW,2013-02-16 14:36:00,
2013-02-16 14:41:00,45.9,44.0,30.07,North,0,0.0,0.0,93,0.00,,,0.01,WUHU216HW,2013-02-16 14:41:00,
2013-02-16 14:46:00,45.9,44.0,30.07,North,0,0.0,0.0,93,0.00,,,0.01,WUHU216HW,2013-02-16 14:46:00,
2013-02-16 14:51:00,46.1,44.2,30.07,North,0,0.0,0.0,93,0.00,,,0.01,WUHU216HW,2013-02-16 14:51:00,
2013-02-16 14:56:00,45.9,43.7,30.07,North,0,0.0,0.0,92,0.00,,,0.01,WUHU216HW,2013-02-16 14:56:00,
2013-02-16 15:01:00,45.9,43.7,30.07,North,0,0.0,0.0,92,0.00,,,0.01,WUHU216HW,2013-02-16 15:01:00,
2013-02-16 15:06:00,45.9,43.7,30.07,North,0,0.0,0.0,92,0.00,,,0.01,WUHU216HW,2013-02-16 15:06:00,
2013-02-16 15:11:00,45.9,43.7,30.07,North,0,0.0,0.0,92,0.00,,,0.01,WUHU216HW,2013-02-16 15:11:00,
2013-02-16 15:16:00,45.9,43.5,30.07,North,0,0.0,0.0,91,0.00,,,0.01,WUHU216HW,2013-02-16 15:16:00,
2013-02-16 15:21:00,45.9,43.5,30.07,North,0,0.0,0.0,91,0.00,,,0.01,WUHU216HW,2013-02-16 15:21:00,
2013-02-16 15:26:00,45.9,43.5,30.07,North,0,0.0,0.0,91,0.00,,,0.01,WUHU216HW,2013-02-16 15:26:00,
2013-02-16 15:31:00,45.9,43.5,30.07,North,0,0.0,0.0,91,0.00,,,0.01,WUHU216HW,2013-02-16 15:31:00,
2013-02-16 15:36:00,45.9,43.5,30.07,North,0,0.0,0.0,91,0.00,,,0.01,WUHU216HW,2013-02-16 15:36:00,
2013-02-16 15:41:00,45.9,43.7,30.07,North,0,0.0,0.0,92,0.00,,,0.01,WUHU216HW,2013-02-16 15:41:00,
2013-02-16 15:46:00,45.7,43.6,30.07,SE,135,0.0,0.2,92,0.00,,,0.01,WUHU216HW,2013-02-16 15:46:00,
2013-02-16 15:51:00,45.9,43.5,30.07,SE,135,0.0,0.2,91,0.00,,,0.01,WUHU216HW,2013-02-16 15:51:00,
2013-02-16 15:56:00,45.7,43.3,30.07,SE,135,0.0,0.0,91,0.00,,,0.01,WUHU216HW,2013-02-16 15:56:00,
2013-02-16 16:01:00,45.7,43.6,30.07,SE,135,0.0,0.0,92,0.00,,,0.01,WUHU216HW,2013-02-16 16:01:00,
2013-02-16 16:06:00,45.7,43.6,30.07,SE,135,0.0,0.0,92,0.00,,,0.01,WUHU216HW,2013-02-16 16:06:00,
2013-02-16 16:11:00,45.7,43.3,30.07,SE,135,0.4,0.4,91,0.00,,,0.01,WUHU216HW,2013-02-16 16:11:00,
2013-02-16 16:16:00,45.7,43.3,30.07,SE,135,0.0,0.4,91,0.00,,,0.01,WUHU216HW,2013-02-16 16:16:00,
2013-02-16 16:21:00,45.7,43.3,30.07,SE,135,0.0,0.4,91,0.00,,,0.01,WUHU216HW,2013-02-16 16:21:00,
2013-02-16 16:26:00,45.7,43.6,30.07,SE,135,0.0,0.0,92,0.00,,,0.01,WUHU216HW,2013-02-16 16:26:00,
2013-02-16 16:31:00,45.7,43.6,30.07,SE,135,0.0,0.0,92,0.00,,,0.01,WUHU216HW,2013-02-16 16:31:00,
2013-02-16 16:36:00,45.7,43.3,30.07,North,0,0.0,0.0,91,0.00,,,0.01,WUHU216HW,2013-02-16 16:36:00,
2013-02-16 16:41:00,45.7,43.6,30.07,SE,135,0.0,0.0,92,0.00,,,0.01,WUHU216HW,2013-02-16 16:41:00,
2013-02-16 16:46:00,45.7,43.3,30.07,SE,135,0.0,0.0,91,0.00,,,0.01,WUHU216HW,2013-02-16 16:46:00,
2013-02-16 16:51:00,45.7,43.3,30.07,SE,135,0.0,0.0,91,0.00,,,0.01,WUHU216HW,2013-02-16 16:51:00,
2013-02-16 16:56:00,45.5,43.4,30.07,SE,135,0.0,0.0,92,0.00,,,0.01,WUHU216HW,2013-02-16 16:56:00,
2013-02-16 17:01:00,45.4,43.2,30.07,North,0,0.0,0.0,92,0.00,,,0.01,WUHU216HW,2013-02-16 17:01:00,
2013-02-16 17:06:00,45.4,42.9,30.07,North,0,0.0,0.0,91,0.00,,,0.01,WUHU216HW,2013-02-16 17:06:00,
2013-02-16 17:11:00,45.5,43.1,30.07,North,0,0.0,0.0,91,0.00,,,0.01,WUHU216HW,2013-02-16 17:11:00,
2013-02-16 17:16:00,45.5,43.1,30.07,North,0,0.0,0.0,91,0.00,,,0.01,WUHU216HW,2013-02-16 17:16:00,
2013-02-16 17:21:00,45.5,43.1,30.07,North,0,0.0,0.0,91,0.00,,,0.01,WUHU216HW,2013-02-16 17:21:00,
2013-02-16 17:26:00,45.4,43.2,30.07,North,0,0.0,0.0,92,0.00,,,0.01,WUHU216HW,2013-02-16 17:26:00,
2013-02-16 17:31:00,45.4,43.2,30.08,North,0,0.0,0.0,92,0.00,,,0.01,WUHU216HW,2013-02-16 17:31:00,
2013-02-16 17:36:00,45.2,43.0,30.08,North,0,0.0,0.0,92,0.00,,,0.01,WUHU216HW,2013-02-16 17:36:00,
2013-02-16 17:41:00,45.0,42.6,30.08,North,0,0.0,0.0,91,0.00,,,0.01,WUHU216HW,2013-02-16 17:41:00,
2013-02-16 17:46:00,45.2,42.8,30.08,North,0,0.0,0.0,91,0.00,,,0.01,WUHU216HW,2013-02-16 17:46:00,
2013-02-16 17:51:00,45.2,42.8,30.08,North,0,0.0,0.0,91,0.00,,,0.01,WUHU216HW,2013-02-16 17:51:00,
2013-02-16 17:56:00,45.2,42.8,30.08,North,0,0.0,0.0,91,0.00,,,0.01,WUHU216HW,2013-02-16 17:56:00,
2013-02-16 18:01:00,45.2,42.8,30.08,North,0,0.0,0.0,91,0.00,,,0.01,WUHU216HW,2013-02-16 18:01:00,
2013-02-16 18:06:00,45.2,42.8,30.08,North,0,0.0,0.0,91,0.00,,,0.01,WUHU216HW,2013-02-16 18:06:00,
2013-02-16 18:11:00,45.0,42.6,30.09,North,0,0.0,0.0,91,0.00,,,0.01,WUHU216HW,2013-02-16 18:11:00,
2013-02-16 18:16:00,45.2,42.8,30.09,North,0,0.0,0.0,91,0.00,,,0.01,WUHU216HW,2013-02-16 18:16:00,
2013-02-16 18:21:00,45.2,42.8,30.09,SE,135,0.0,0.0,91,0.00,,,0.01,WUHU216HW,2013-02-16 18:21:00,
2013-02-16 18:26:00,45.2,42.8,30.09,North,0,0.0,0.0,91,0.00,,,0.01,WUHU216HW,2013-02-16 18:26:00,
2013-02-16 18:31:00,45.2,42.8,30.09,North,0,0.0,0.0,91,0.00,,,0.01,WUHU216HW,2013-02-16 18:31:00,
2013-02-16 18:36:00,45.2,42.8,30.08,North,0,0.0,0.0,91,0.00,,,0.01,WUHU216HW,2013-02-16 18:36:00,
2013-02-16 18:41:00,45.2,42.8,30.08,North,0,0.0,0.0,91,0.00,,,0.01,WUHU216HW,2013-02-16 18:41:00,
2013-02-16 18:46:00,45.2,42.8,30.08,SE,135,0.0,0.0,91,0.00,,,0.01,WUHU216HW,2013-02-16 18:46:00,
2013-02-16 18:51:00,45.2,42.8,30.08,SE,135,0.0,0.0,91,0.00,,,0.01,WUHU216HW,2013-02-16 18:51:00,
2013-02-16 18:56:00,45.0,42.6,30.09,SE,135,0.4,1.1,91,0.00,,,0.01,WUHU216HW,2013-02-16 18:56:00,
2013-02-16 19:01:00,45.0,42.6,30.08,SE,135,0.2,1.1,91,0.00,,,0.01,WUHU216HW,2013-02-16 19:01:00,
2013-02-16 19:06:00,45.0,42.6,30.08,SE,135,0.2,0.4,91,0.00,,,0.01,WUHU216HW,2013-02-16 19:06:00,
2013-02-16 19:11:00,45.0,42.6,30.08,SE,135,0.0,0.2,91,0.00,,,0.01,WUHU216HW,2013-02-16 19:11:00,
2013-02-16 19:16:00,44.8,42.4,30.08,SE,135,0.0,0.2,91,0.00,,,0.01,WUHU216HW,2013-02-16 19:16:00,
2013-02-16 19:21:00,44.8,42.4,30.08,SE,135,0.0,0.0,91,0.00,,,0.01,WUHU216HW,2013-02-16 19:21:00,
2013-02-16 19:26:00,44.8,42.4,30.08,SE,135,0.0,0.0,91,0.00,,,0.01,WUHU216HW,2013-02-16 19:26:00,
2013-02-16 19:31:00,44.6,42.2,30.08,SE,135,0.0,0.0,91,0.00,,,0.01,WUHU216HW,2013-02-16 19:31:00,
2013-02-16 19:36:00,44.6,42.2,30.09,SE,135,0.4,0.4,91,0.00,,,0.01,WUHU216HW,2013-02-16 19:36:00,
2013-02-16 19:41:00,44.6,42.2,30.09,ESE,113,1.3,1.3,91,0.00,,,0.01,WUHU216HW,2013-02-16 19:41:00,
2013-02-16 19:46:00,44.6,42.2,30.09,ESE,113,0.4,1.3,91,0.00,,,0.01,WUHU216HW,2013-02-16 19:46:00,
2013-02-16 19:51:00,44.8,42.4,30.09,ESE,113,0.4,1.3,91,0.00,,,0.01,WUHU216HW,2013-02-16 19:51:00,
2013-02-16 19:56:00,44.6,42.2,30.09,ESE,113,0.0,0.4,91,0.00,,,0.01,WUHU216HW,2013-02-16 19:56:00,
2013-02-16 20:01:00,44.8,42.4,30.09,ESE,113,0.4,0.4,91,0.00,,,0.01,WUHU216HW,2013-02-16 20:01:00,
2013-02-16 20:06:00,44.8,42.4,30.09,ESE,113,0.0,0.4,91,0.00,,,0.01,WUHU216HW,2013-02-16 20:06:00,
2013-02-16 20:11:00,44.8,42.4,30.09,ESE,113,0.0,0.2,91,0.00,,,0.01,WUHU216HW,2013-02-16 20:11:00,
2013-02-16 20:16:00,44.8,42.4,30.09,ESE,113,0.0,0.0,91,0.00,,,0.01,WUHU216HW,2013-02-16 20:16:00,
2013-02-16 20:21:00,44.8,42.4,30.09,ESE,113,0.7,0.7,91,0.00,,,0.01,WUHU216HW,2013-02-16 20:21:00,
2013-02-16 20:27:00,44.8,42.4,30.09,ESE,113,0.0,0.7,91,0.00,,,0.01,WUHU216HW,2013-02-16 20:27:00,
2013-02-16 20:32:00,44.8,42.4,30.09,ESE,113,0.0,0.4,91,0.00,,,0.01,WUHU216HW,2013-02-16 20:32:00,
2013-02-16 20:37:00,44.8,42.4,30.09,ESE,113,0.4,0.4,91,0.00,,,0.01,WUHU216HW,2013-02-16 20:37:00,
2013-02-16 20:42:00,44.8,42.4,30.09,ESE,113,0.0,0.4,91,0.00,,,0.01,WUHU216HW,2013-02-16 20:42:00,
2013-02-16 20:47:00,44.8,42.1,30.09,ESE,113,0.2,0.2,90,0.00,,,0.01,WUHU216HW,2013-02-16 20:47:00,
2013-02-16 20:52:00,44.8,42.4,30.09,ESE,113,0.0,0.2,91,0.00,,,0.01,WUHU216HW,2013-02-16 20:52:00,
2013-02-16 20:57:00,44.8,42.4,30.09,ESE,113,0.0,0.2,91,0.00,,,0.01,WUHU216HW,2013-02-16 20:57:00,
2013-02-16 21:02:00,44.6,42.2,30.09,ESE,113,0.2,0.4,91,0.00,,,0.01,WUHU216HW,2013-02-16 21:02:00,
2013-02-16 21:07:00,44.6,42.2,30.09,ESE,113,0.4,0.4,91,0.00,,,0.01,WUHU216HW,2013-02-16 21:07:00,
2013-02-16 21:12:00,44.6,42.2,30.09,ESE,113,0.0,0.4,91,0.00,,,0.01,WUHU216HW,2013-02-16 21:12:00,
2013-02-16 21:17:00,44.6,42.2,30.09,SE,135,1.1,1.1,91,0.00,,,0.01,WUHU216HW,2013-02-16 21:17:00,
2013-02-16 21:22:00,44.6,42.2,30.09,SE,135,0.4,1.1,91,0.00,,,0.01,WUHU216HW,2013-02-16 21:22:00,
2013-02-16 21:27:00,44.6,41.9,30.09,SE,135,0.0,1.1,90,0.00,,,0.01,WUHU216HW,2013-02-16 21:27:00,
2013-02-16 21:32:00,44.5,41.8,30.09,SE,135,0.0,0.7,90,0.00,,,0.01,WUHU216HW,2013-02-16 21:32:00,
2013-02-16 21:37:00,44.5,41.8,30.09,SE,135,0.0,0.0,90,0.00,,,0.01,WUHU216HW,2013-02-16 21:37:00,
2013-02-16 21:42:00,44.5,41.8,30.09,SE,135,0.2,0.7,90,0.00,,,0.01,WUHU216HW,2013-02-16 21:42:00,
2013-02-16 21:47:00,44.5,41.8,30.09,SE,135,0.2,0.7,90,0.00,,,0.01,WUHU216HW,2013-02-16 21:47:00,
2013-02-16 21:52:00,44.5,41.8,30.09,SE,135,0.4,0.4,90,0.00,,,0.01,WUHU216HW,2013-02-16 21:52:00,
2013-02-16 21:57:00,44.3,41.6,30.09,SE,135,0.0,0.4,90,0.00,,,0.01,WUHU216HW,2013-02-16 21:57:00,
2013-02-16 22:02:00,44.3,41.6,30.09,North,0,0.0,0.4,90,0.00,,,0.01,WUHU216HW,2013-02-16 22:02:00,
2013-02-16 22:07:00,44.5,41.8,30.09,SE,135,0.2,0.2,90,0.00,,,0.01,WUHU216HW,2013-02-16 22:07:00,
2013-02-16 22:12:00,44.5,41.8,30.09,SE,135,0.0,0.2,90,0.00,,,0.01,WUHU216HW,2013-02-16 22:12:00,
2013-02-16 22:17:00,44.3,41.6,30.09,SE,135,0.0,0.2,90,0.00,,,0.01,WUHU216HW,2013-02-16 22:17:00,
2013-02-16 22:22:00,44.3,41.6,30.09,SE,135,0.0,0.0,90,0.00,,,0.01,WUHU216HW,2013-02-16 22:22:00,
2013-02-16 22:27:00,44.3,41.6,30.09,SE,135,0.0,0.0,90,0.00,,,0.01,WUHU216HW,2013-02-16 22:27:00,
2013-02-16 22:32:00,44.3,41.6,30.09,SE,135,0.0,0.0,90,0.00,,,0.01,WUHU216HW,2013-02-16 22:32:00,
2013-02-16 22:37:00,44.3,41.6,30.09,SE,135,0.0,0.0,90,0.00,,,0.01,WUHU216HW,2013-02-16 22:37:00,
2013-02-16 22:42:00,44.3,41.6,30.09,SE,135,0.0,0.0,90,0.00,,,0.01,WUHU216HW,2013-02-16 22:42:00,
2013-02-16 22:47:00,44.3,41.6,30.09,SE,135,0.0,0.0,90,0.00,,,0.01,WUHU216HW,2013-02-16 22:47:00,
2013-02-16 22:52:00,44.3,41.6,30.09,SE,135,0.0,0.0,90,0.00,,,0.01,WUHU216HW,2013-02-16 22:52:00,
2013-02-16 22:57:00,44.3,41.6,30.09,SE,135,0.4,0.4,90,0.00,,,0.01,WUHU216HW,2013-02-16 22:57:00,
2013-02-16 23:02:00,44.3,41.6,30.09,SE,135,0.4,0.4,90,0.00,,,0.01,WUHU216HW,2013-02-16 23:02:00,
2013-02-16 23:07:00,44.3,41.6,30.09,SE,135,0.4,0.4,90,0.00,,,0.01,WUHU216HW,2013-02-16 23:07:00,
2013-02-16 23:12:00,44.3,41.6,30.09,SE,135,0.0,0.4,90,0.00,,,0.01,WUHU216HW,2013-02-16 23:12:00,
2013-02-16 23:17:00,44.3,41.6,30.10,SE,135,0.7,0.7,90,0.00,,,0.01,WUHU216HW,2013-02-16 23:17:00,
2013-02-16 23:22:00,44.3,41.6,30.09,North,0,0.0,0.7,90,0.00,,,0.01,WUHU216HW,2013-02-16 23:22:00,
2013-02-16 23:27:00,44.3,41.6,30.09,North,0,0.0,0.4,90,0.00,,,0.01,WUHU216HW,2013-02-16 23:27:00,
2013-02-16 23:32:00,44.5,41.8,30.09,North,0,0.0,0.0,90,0.00,,,0.01,WUHU216HW,2013-02-16 23:32:00,
2013-02-16 23:37:00,44.5,41.8,30.09,North,0,0.0,0.0,90,0.00,,,0.01,WUHU216HW,2013-02-16 23:37:00,
2013-02-16 23:42:00,44.5,41.8,30.09,North,0,0.0,0.0,90,0.00,,,0.01,WUHU216HW,2013-02-16 23:42:00,
2013-02-16 23:47:00,44.5,41.8,30.09,North,0,0.0,0.0,90,0.00,,,0.01,WUHU216HW,2013-02-16 23:47:00,
2013-02-16 23:52:00,44.5,41.8,30.09,North,0,0.0,0.0,90,0.00,,,0.01,WUHU216HW,2013-02-16 23:52:00,
2013-02-16 23:57:00,44.5,41.8,30.09,North,0,0.0,0.0,90,0.00,,,0.01,WUHU216HW,2013-02-16 23:57:00,